TimeEST,TemperatureF,Dew PointF,Humidity,Sea Level PressureIn,VisibilityMPH,Wind Direction,Wind SpeedMPH,Gust SpeedMPH,PrecipitationIn,Events,Conditions,WindDirDegrees,DateUTC
12:15 AM,35.6,26.1,68,30.00,10.0,Calm,Calm,-,N/A,,Clear,0,2013-12-16 05:15:00
12:35 AM,36.0,26.2,68,30.00,10.0,WSW,5.8,-,N/A,,Clear,250,2013-12-16 05:35:00
12:55 AM,35.8,26.2,68,30.01,10.0,SW,4.6,-,N/A,,Clear,230,2013-12-16 05:55:00
1:15 AM,35.6,26.2,69,30.01,10.0,Calm,Calm,-,N/A,,Clear,0,2013-12-16 06:15:00
1:35 AM,35.4,26.2,69,30.01,10.0,WSW,4.6,-,N/A,,Clear,240,2013-12-16 06:35:00
1:55 AM,34.7,26.4,72,30.02,10.0,Calm,Calm,-,N/A,,Clear,0,2013-12-16 06:55:00
2:15 AM,35.1,26.6,71,30.02,10.0,Calm,Calm,-,N/A,,Scattered Clouds,0,2013-12-16 07:15:00
2:35 AM,35.2,26.6,71,30.03,10.0,Calm,Calm,-,N/A,,Scattered Clouds,0,2013-12-16 07:35:00
2:55 AM,34.7,27.0,73,30.04,10.0,Calm,Calm,-,N/A,,Mostly Cloudy,0,2013-12-16 07:55:00
3:15 AM,35.6,27.3,72,30.04,10.0,Calm,Calm,-,N/A,,Overcast,0,2013-12-16 08:15:00
3:35 AM,35.1,27.3,73,30.04,10.0,Calm,Calm,-,N/A,,Overcast,0,2013-12-16 08:35:00
3:55 AM,34.7,28.4,78,30.05,10.0,Calm,Calm,-,N/A,,Overcast,0,2013-12-16 08:55:00
4:15 AM,33.4,29.3,85,30.06,10.0,Calm,Calm,-,N/A,,Overcast,0,2013-12-16 09:15:00
4:35 AM,34.7,28.2,77,30.06,10.0,Calm,Calm,-,N/A,,Overcast,0,2013-12-16 09:35:00
5:15 AM,33.8,29.1,83,30.07,10.0,Calm,Calm,-,N/A,,Overcast,0,2013-12-16 10:15:00
5:35 AM,32.5,30.6,92,30.08,10.0,Calm,Calm,-,N/A,,Overcast,0,2013-12-16 10:35:00
5:55 AM,32.9,29.3,87,30.09,10.0,Calm,Calm,-,N/A,,Overcast,0,2013-12-16 10:55:00
6:15 AM,32.9,29.3,87,30.10,10.0,Calm,Calm,-,N/A,,Overcast,0,2013-12-16 11:15:00
6:35 AM,32.9,28.2,83,30.10,10.0,NE,3.5,-,N/A,,Mostly Cloudy,40,2013-12-16 11:35:00
6:55 AM,32.0,28.6,87,30.09,10.0,Calm,Calm,-,N/A,,Scattered Clouds,0,2013-12-16 11:55:00
7:15 AM,30.7,30.7,100,30.10,10.0,Calm,Calm,-,N/A,,Clear,0,2013-12-16 12:15:00
7:35 AM,31.1,31.1,100,30.12,10.0,Calm,Calm,-,N/A,,Clear,0,2013-12-16 12:35:00
7:55 AM,32.0,32.0,100,30.13,10.0,Calm,Calm,-,N/A,,Clear,0,2013-12-16 12:55:00
8:15 AM,32.0,32.0,100,30.14,10.0,Calm,Calm,-,N/A,,Scattered Clouds,0,2013-12-16 13:15:00
8:35 AM,32.4,32.4,100,30.15,10.0,Calm,Calm,-,N/A,,Mostly Cloudy,0,2013-12-16 13:35:00
8:55 AM,32.9,32.9,100,30.16,10.0,Calm,Calm,-,N/A,,Overcast,0,2013-12-16 13:55:00
9:15 AM,34.7,31.6,89,30.17,10.0,Calm,Calm,-,N/A,,Overcast,0,2013-12-16 14:15:00
9:35 AM,34.7,34.3,99,30.18,10.0,Calm,Calm,-,N/A,,Overcast,0,2013-12-16 14:35:00
9:55 AM,35.6,30.7,82,30.19,10.0,Calm,Calm,-,N/A,,Overcast,0,2013-12-16 14:55:00
10:15 AM,36.5,29.8,77,30.20,10.0,Calm,Calm,-,N/A,,Overcast,0,2013-12-16 15:15:00
10:35 AM,38.3,28.0,67,30.19,10.0,Calm,Calm,-,N/A,,Mostly Cloudy,0,2013-12-16 15:35:00
10:55 AM,38.3,28.4,68,30.19,10.0,Calm,Calm,-,N/A,,Mostly Cloudy,0,2013-12-16 15:55:00
11:15 AM,38.3,27.5,65,30.18,10.0,Calm,Calm,-,N/A,,Overcast,0,2013-12-16 16:15:00
11:35 AM,38.7,28.2,66,30.18,10.0,Calm,Calm,-,N/A,,Mostly Cloudy,0,2013-12-16 16:35:00
11:55 AM,38.7,27.7,65,30.17,10.0,Calm,Calm,-,N/A,,Scattered Clouds,0,2013-12-16 16:55:00
12:15 PM,39.2,28.0,64,30.17,10.0,Calm,Calm,-,N/A,,Clear,0,2013-12-16 17:15:00
12:35 PM,39.4,28.4,65,30.16,10.0,Calm,Calm,-,N/A,,Clear,0,2013-12-16 17:35:00
12:55 PM,40.1,28.9,64,30.15,10.0,ENE,4.6,-,N/A,,Clear,60,2013-12-16 17:55:00
1:15 PM,39.7,28.8,65,30.15,10.0,Calm,Calm,-,N/A,,Clear,0,2013-12-16 18:15:00
1:35 PM,40.3,29.7,66,30.16,10.0,Calm,Calm,-,N/A,,Clear,0,2013-12-16 18:35:00
1:55 PM,40.1,29.3,65,30.15,10.0,ENE,3.5,-,N/A,,Clear,60,2013-12-16 18:55:00
2:15 PM,40.1,29.1,65,30.16,10.0,Calm,Calm,-,N/A,,Scattered Clouds,0,2013-12-16 19:15:00
2:35 PM,40.1,29.3,65,30.17,10.0,Calm,Calm,-,N/A,,Mostly Cloudy,0,2013-12-16 19:35:00
2:55 PM,40.1,29.3,65,30.17,10.0,Calm,Calm,-,N/A,,Overcast,0,2013-12-16 19:55:00
3:15 PM,40.1,29.5,66,30.18,10.0,Calm,Calm,-,N/A,,Overcast,0,2013-12-16 20:15:00
3:35 PM,40.1,29.8,67,30.17,10.0,ENE,5.8,-,N/A,,Overcast,70,2013-12-16 20:35:00
3:55 PM,39.2,29.1,67,30.18,10.0,ENE,4.6,-,N/A,,Mostly Cloudy,60,2013-12-16 20:55:00
4:15 PM,38.3,28.4,68,30.19,10.0,East,4.6,-,N/A,,Scattered Clouds,80,2013-12-16 21:15:00
4:35 PM,37.8,28.6,69,30.19,10.0,ENE,3.5,-,N/A,,Scattered Clouds,60,2013-12-16 21:35:00
4:55 PM,36.5,27.5,70,30.19,10.0,ENE,3.5,-,N/A,,Clear,70,2013-12-16 21:55:00
5:15 PM,34.9,27.5,74,30.19,10.0,ENE,3.5,-,N/A,,Scattered Clouds,70,2013-12-16 22:15:00
5:35 PM,35.1,27.3,73,30.20,10.0,Calm,Calm,-,N/A,,Scattered Clouds,0,2013-12-16 22:35:00
5:55 PM,34.0,27.5,77,30.19,10.0,ENE,4.6,-,N/A,,Scattered Clouds,60,2013-12-16 22:55:00
6:15 PM,33.4,27.5,79,30.20,10.0,Calm,Calm,-,N/A,,Scattered Clouds,0,2013-12-16 23:15:00
6:35 PM,34.5,27.9,77,30.21,10.0,Calm,Calm,-,N/A,,Clear,0,2013-12-16 23:35:00
6:55 PM,32.0,27.5,83,30.22,10.0,Calm,Calm,-,N/A,,Clear,0,2013-12-16 23:55:00
7:15 PM,31.5,27.7,86,30.22,10.0,Calm,Calm,-,N/A,,Clear,0,2013-12-17 00:15:00
7:35 PM,31.5,27.7,86,30.23,10.0,Calm,Calm,-,N/A,,Clear,0,2013-12-17 00:35:00
7:55 PM,32.0,28.0,85,30.22,10.0,Calm,Calm,-,N/A,,Clear,0,2013-12-17 00:55:00
8:15 PM,31.6,28.0,87,30.22,10.0,Calm,Calm,-,N/A,,Clear,0,2013-12-17 01:15:00
8:35 PM,31.6,27.5,85,30.22,10.0,Calm,Calm,-,N/A,,Scattered Clouds,0,2013-12-17 01:35:00
8:55 PM,28.4,28.4,100,30.22,10.0,Calm,Calm,-,N/A,,Clear,0,2013-12-17 01:55:00
9:15 PM,29.8,29.8,100,30.22,10.0,Calm,Calm,-,N/A,,Mostly Cloudy,0,2013-12-17 02:15:00
9:35 PM,29.3,29.3,100,30.22,10.0,Calm,Calm,-,N/A,,Overcast,0,2013-12-17 02:35:00
9:55 PM,32.2,31.6,98,30.21,10.0,Calm,Calm,-,N/A,,Overcast,0,2013-12-17 02:55:00
10:15 PM,32.5,31.6,96,30.21,10.0,Calm,Calm,-,N/A,,Mostly Cloudy,0,2013-12-17 03:15:00
10:35 PM,30.9,30.9,100,30.21,10.0,Calm,Calm,-,N/A,,Scattered Clouds,0,2013-12-17 03:35:00
10:55 PM,32.0,32.0,100,30.21,10.0,Calm,Calm,-,N/A,,Clear,0,2013-12-17 03:55:00
11:15 PM,31.8,31.8,100,30.20,10.0,Calm,Calm,-,N/A,,Scattered Clouds,0,2013-12-17 04:15:00
11:35 PM,31.5,31.5,100,30.20,10.0,Calm,Calm,-,N/A,,Scattered Clouds,0,2013-12-17 04:35:00
11:55 PM,31.1,31.1,100,30.20,10.0,Calm,Calm,-,N/A,,Overcast,0,2013-12-17 04:55:00